When you browse on this site, cookies collect data to enhance your experience and personalize the content and advertising you see.
Visit our Privacy Policy to learn more. By continuing to use the site, you agree to this use of cookies and data.
  • In France
  • List of Countries
  • For 7 days
  • Water Temperature
  • Weather Map
  • Weather Widgets
  • user-avatar
    Login

    Hourly Weather Frankfurt am Mein

    Today, 19 September, Thursday

    Time Temperature Precipitation Wind Pressure Humidity
    00:00 +8°C° 0 mm 1 mps 730 mmHg 79%
    01:00 +8°C° 0 mm 1 mps 730 mmHg 79%
    02:00 +7°C° 0 mm 1 mps 730 mmHg 81%
    03:00 +7°C° 0 mm 1 mps 729 mmHg 83%
    04:00 +7°C° 0 mm 1 mps 729 mmHg 85%
    05:00 +6°C° 0 mm 1 mps 730 mmHg 86%
    06:00 +6°C° 0 mm 1 mps 730 mmHg 86%
    07:00 +7°C° 0 mm 1 mps 731 mmHg 85%
    08:00 +8°C° 0 mm 2 mps 731 mmHg 75%
    09:00 +9°C° 0 mm 2 mps 731 mmHg 64%
    10:00 +12°C° 0 mm 2 mps 731 mmHg 54%
    11:00 +13°C° 0 mm 2 mps 731 mmHg 49%
    12:00 +14°C° 0 mm 2 mps 731 mmHg 45%
    13:00 +14°C° 0 mm 3 mps 732 mmHg 42%
    14:00 +14°C° 0 mm 3 mps 731 mmHg 42%
    15:00 +14°C° 0 mm 3 mps 731 mmHg 43%
    16:00 +14°C° 0 mm 3 mps 731 mmHg 43%
    17:00 +12°C° 0 mm 3 mps 731 mmHg 50%
    18:00 +10°C° 0 mm 2 mps 731 mmHg 57%
    19:00 +9°C° 0 mm 2 mps 731 mmHg 63%
    20:00 +8°C° 0 mm 2 mps 731 mmHg 66%
    21:00 +7°C° 0 mm 2 mps 731 mmHg 69%
    22:00 +7°C° 0 mm 1 mps 731 mmHg 72%
    23:00 +7°C° 0 mm 1 mps 731 mmHg 74%

    Tomorrow, 20 September, Friday

    Time Temperature Precipitation Wind Pressure Humidity
    00:00 +7°C° 0 mm 1 mps 731 mmHg 76%
    01:00 +6°C° 0 mm 1 mps 731 mmHg 78%
    02:00 +6°C° 0 mm 1 mps 731 mmHg 79%
    03:00 +6°C° 0 mm 1 mps 731 mmHg 80%
    04:00 +6°C° 0 mm 1 mps 730 mmHg 81%
    05:00 +6°C° 0 mm 1 mps 730 mmHg 80%
    06:00 +6°C° 0 mm 1 mps 730 mmHg 80%
    07:00 +6°C° 0 mm 1 mps 730 mmHg 79%
    08:00 +8°C° 0 mm 1 mps 731 mmHg 70%
    09:00 +10°C° 0 mm 1 mps 731 mmHg 61%
    10:00 +12°C° 0 mm 2 mps 731 mmHg 52%
    11:00 +14°C° 0 mm 2 mps 731 mmHg 47%
    12:00 +15°C° 0 mm 2 mps 730 mmHg 42%
    13:00 +17°C° 0 mm 2 mps 730 mmHg 37%
    14:00 +17°C° 0 mm 2 mps 730 mmHg 37%
    15:00 +17°C° 0 mm 2 mps 729 mmHg 38%
    16:00 +18°C° 0 mm 2 mps 729 mmHg 38%
    17:00 +16°C° 0 mm 2 mps 729 mmHg 45%
    18:00 +14°C° 0 mm 2 mps 728 mmHg 51%
    19:00 +12°C° 0 mm 2 mps 728 mmHg 58%
    20:00 +10°C° 0 mm 2 mps 728 mmHg 61%
    21:00 +10°C° 0 mm 1 mps 728 mmHg 64%
    22:00 +10°C° 0 mm 1 mps 728 mmHg 67%
    23:00 +9°C° 0 mm 1 mps 727 mmHg 69%

    Day after tomorrow, 21 September, Saturday

    Time Temperature Precipitation Wind Pressure Humidity
    00:00 +9°C° 0 mm 1 mps 727 mmHg 71%
    01:00 +8°C° 0 mm 1 mps 727 mmHg 73%
    02:00 +8°C° 0 mm 1 mps 726 mmHg 75%
    03:00 +8°C° 0 mm 1 mps 726 mmHg 77%
    04:00 +7°C° 0 mm 1 mps 726 mmHg 79%
    05:00 +7°C° 0 mm 1 mps 725 mmHg 78%
    06:00 +7°C° 0 mm 1 mps 725 mmHg 78%
    07:00 +7°C° 0 mm 1 mps 725 mmHg 77%
    08:00 +9°C° 0 mm 2 mps 725 mmHg 67%
    09:00 +12°C° 0 mm 2 mps 725 mmHg 57%
    10:00 +13°C° 0 mm 3 mps 725 mmHg 47%
    11:00 +16°C° 0 mm 3 mps 725 mmHg 44%
    12:00 +17°C° 0 mm 3 mps 725 mmHg 40%
    13:00 +19°C° 0 mm 4 mps 724 mmHg 37%
    14:00 +19°C° 0 mm 3 mps 724 mmHg 37%
    15:00 +19°C° 0 mm 3 mps 723 mmHg 37%
    16:00 +20°C° 0 mm 3 mps 723 mmHg 37%
    17:00 +18°C° 0 mm 3 mps 722 mmHg 44%
    18:00 +16°C° 0 mm 2 mps 722 mmHg 50%
    19:00 +14°C° 0 mm 2 mps 722 mmHg 57%
    20:00 +13°C° 0 mm 2 mps 721 mmHg 61%
    21:00 +12°C° 0 mm 2 mps 721 mmHg 64%
    22:00 +12°C° 0 mm 2 mps 721 mmHg 68%
    23:00 +11°C° 0 mm 1 mps 721 mmHg 71%

    22 September, Sunday

    Time Temperature Precipitation Wind Pressure Humidity
    00:00 +10°C° 0 mm 1 mps 721 mmHg 74%
    01:00 +10°C° 0 mm 1 mps 720 mmHg 77%
    02:00 +9°C° 0 mm 1 mps 720 mmHg 79%
    03:00 +9°C° 0 mm 1 mps 720 mmHg 81%
    04:00 +8°C° 0 mm 1 mps 719 mmHg 82%
    05:00 +9°C° 0 mm 1 mps 719 mmHg 82%
    06:00 +9°C° 0 mm 1 mps 719 mmHg 81%
    07:00 +9°C° 0 mm 1 mps 719 mmHg 81%
    08:00 +11°C° 0 mm 1 mps 719 mmHg 73%
    09:00 +13°C° 0 mm 1 mps 719 mmHg 65%
    10:00 +15°C° 0 mm 1 mps 719 mmHg 58%
    11:00 +16°C° 0 mm 1 mps 719 mmHg 55%
    12:00 +19°C° 0 mm 1 mps 719 mmHg 53%
    13:00 +19°C° 0 mm 2 mps 719 mmHg 50%
    14:00 +19°C° 0 mm 1 mps 718 mmHg 54%
    15:00 +18°C° 0 mm 1 mps 718 mmHg 58%
    16:00 +16°C° 0 mm 1 mps 717 mmHg 62%
    17:00 +15°C° 0 mm 1 mps 717 mmHg 66%
    18:00 +14°C° 0 mm 1 mps 716 mmHg 69%
    19:00 +14°C° 0 mm 1 mps 716 mmHg 72%
    20:00 +13°C° 0 mm 1 mps 716 mmHg 74%
    21:00 +13°C° 0 mm 1 mps 716 mmHg 75%
    22:00 +12°C° 0 mm 1 mps 715 mmHg 77%
    23:00 +12°C° 0.1 mm 1 mps 716 mmHg 79%

    23 September, Monday

    Time Temperature Precipitation Wind Pressure Humidity
    00:00 +11°C° 0.1 mm 0 mps 716 mmHg 80%
    01:00 +11°C° 0.1 mm 0 mps 716 mmHg 82%
    02:00 +12°C° 1.2 mm 1 mps 716 mmHg 86%
    03:00 +12°C° 1.2 mm 1 mps 717 mmHg 90%
    04:00 +12°C° 1.2 mm 1 mps 717 mmHg 95%
    05:00 +13°C° 1 mm 2 mps 717 mmHg 94%
    06:00 +12°C° 1 mm 3 mps 717 mmHg 93%
    07:00 +12°C° 1 mm 4 mps 718 mmHg 92%
    08:00 +12°C° 0.5 mm 4 mps 718 mmHg 91%
    09:00 +12°C° 0.5 mm 4 mps 718 mmHg 90%
    10:00 +12°C° 0.5 mm 4 mps 719 mmHg 89%
    11:00 +12°C° 0.2 mm 3 mps 719 mmHg 89%
    12:00 +12°C° 0.2 mm 3 mps 719 mmHg 88%
    13:00 +13°C° 0.2 mm 3 mps 719 mmHg 88%
    14:00 +14°C° 0.1 mm 2 mps 719 mmHg 87%
    15:00 +14°C° 0.1 mm 1 mps 719 mmHg 86%
    16:00 +14°C° 0.1 mm 1 mps 719 mmHg 86%
    17:00 +14°C° 0.1 mm 1 mps 720 mmHg 87%
    18:00 +13°C° 0.1 mm 1 mps 720 mmHg 88%
    19:00 +13°C° 0.1 mm 1 mps 720 mmHg 89%
    20:00 +13°C° 0 mm 1 mps 720 mmHg 89%
    21:00 +12°C° 0 mm 1 mps 721 mmHg 90%
    22:00 +12°C° 0 mm 2 mps 721 mmHg 90%
    23:00 +12°C° 0 mm 2 mps 721 mmHg 91%

    24 September, Tuesday

    Time Temperature Precipitation Wind Pressure Humidity
    00:00 +11°C° 0 mm 1 mps 721 mmHg 91%
    01:00 +11°C° 0 mm 1 mps 721 mmHg 91%
    02:00 +10°C° 0 mm 1 mps 721 mmHg 91%
    03:00 +10°C° 0 mm 1 mps 721 mmHg 91%
    04:00 +10°C° 0 mm 1 mps 721 mmHg 91%
    05:00 +10°C° 0 mm 1 mps 721 mmHg 91%
    06:00 +10°C° 0 mm 1 mps 721 mmHg 91%
    07:00 +10°C° 0 mm 1 mps 721 mmHg 90%
    08:00 +11°C° 0 mm 1 mps 721 mmHg 84%
    09:00 +13°C° 0 mm 1 mps 721 mmHg 78%
    10:00 +15°C° 0 mm 2 mps 721 mmHg 72%
    11:00 +16°C° 0 mm 2 mps 720 mmHg 66%
    12:00 +17°C° 0 mm 3 mps 720 mmHg 61%
    13:00 +18°C° 0 mm 3 mps 720 mmHg 55%
    14:00 +18°C° 0 mm 3 mps 719 mmHg 57%
    15:00 +18°C° 0 mm 3 mps 719 mmHg 58%
    16:00 +17°C° 0 mm 3 mps 718 mmHg 59%
    17:00 +16°C° 0.4 mm 3 mps 718 mmHg 68%
    18:00 +14°C° 0.4 mm 3 mps 718 mmHg 77%
    19:00 +12°C° 0.4 mm 3 mps 718 mmHg 86%
    20:00 +12°C° 0 mm 3 mps 717 mmHg 85%
    21:00 +12°C° 0 mm 3 mps 717 mmHg 84%
    22:00 +12°C° 0 mm 3 mps 717 mmHg 83%
    23:00 +12°C° 0.1 mm 3 mps 717 mmHg 85%
    Show more